User: anonymous   Login
Location: Bangkok
(13.7500°N, 100.5170°E)
Time: 00:34:24
(UTC+07:00)
Language:

Cosmos 1898 Rocket - Orbit

View from above orbital plane
View from above orbital plane
View from above satellite
View from above satellite

Ground track
Ground track

The orbit data is extracted from the following two-line orbital elements,

1 18586U 87098B   17294.53044971  .00000028  00000-0  18465-4 0  9994
2 18586  74.0074  62.6826 0019936  89.1613 271.1824 14.36796496565509
Epoch (UTC): 21 October 2017 12:43:50
Eccentricity: 0.0019936
inclination: 74.0074°
perigee height: 755 km
apogee height: 783 km
right ascension of ascending node: 62.6826°
argument of perigee: 89.1613°
revolutions per day: 14.36796496
mean anomaly at epoch: 271.1824°
orbit number at epoch: 56550

The dashed part of the orbit path shows where the satellite is in the earth's shadow,  

DLR